Wetterdaten: Sonntag, 31.01.2016
Datum Zeit Temp. A. Feuchte A. Luftdruck Regen Wind Richtung Richtung Sonnenschein ET UV Solar Taupunkt Windchill Windben Empfang
31.01.2016 00:00 5,7 C 98 % 1012,4 hPa 0,2 l/m 3,6 km/h (1 Bft) W-SW 246 0 min 0,000 mm 0,0 UV-I 0 W/m 5,4 C 5,7 C 6,4 km/h (2 Bft) 98,21 %
31.01.2016 00:05 5,7 C 98 % 1012,5 hPa 0,0 l/m 4,2 km/h (1 Bft) W-SW 257 0 min 0,000 mm 0,0 UV-I 0 W/m 5,4 C 5,7 C 8,0 km/h (2 Bft) 98,29 %
31.01.2016 00:10 5,5 C 98 % 1012,3 hPa 0,0 l/m 3,7 km/h (1 Bft) W-SW 257 0 min 0,000 mm 0,0 UV-I 0 W/m 5,2 C 5,5 C 11,3 km/h (2 Bft) 100,00 %
31.01.2016 00:15 5,6 C 98 % 1012,5 hPa 0,0 l/m 5,1 km/h (1 Bft) W 266 0 min 0,000 mm 0,0 UV-I 0 W/m 5,3 C 5,6 C 11,3 km/h (2 Bft) 100,00 %
31.01.2016 00:20 5,6 C 98 % 1012,5 hPa 0,2 l/m 5,4 km/h (1 Bft) W-SW 250 0 min 0,000 mm 0,0 UV-I 0 W/m 5,3 C 5,6 C 9,7 km/h (2 Bft) 100,00 %
31.01.2016 00:25 5,7 C 98 % 1012,4 hPa 0,0 l/m 7,7 km/h (2 Bft) W 259 0 min 0,000 mm 0,0 UV-I 0 W/m 5,4 C 4,6 C 12,9 km/h (3 Bft) 100,00 %
31.01.2016 00:30 5,8 C 98 % 1012,3 hPa 0,2 l/m 6,5 km/h (2 Bft) W-SW 240 0 min 0,000 mm 0,0 UV-I 0 W/m 5,5 C 5,7 C 11,3 km/h (2 Bft) 100,00 %
31.01.2016 00:35 5,8 C 98 % 1012,3 hPa 0,2 l/m 9,9 km/h (2 Bft) W-SW 238 0 min 0,000 mm 0,0 UV-I 0 W/m 5,5 C 3,0 C 17,7 km/h (3 Bft) 100,00 %
31.01.2016 00:40 5,9 C 97 % 1012,0 hPa 0,0 l/m 10,3 km/h (2 Bft) S-SW 202 0 min 0,000 mm 0,0 UV-I 0 W/m 5,5 C 2,9 C 16,1 km/h (3 Bft) 97,39 %
31.01.2016 00:45 5,9 C 97 % 1012,0 hPa 0,0 l/m 12,5 km/h (3 Bft) S 184 0 min 0,000 mm 0,0 UV-I 0 W/m 5,5 C 1,5 C 19,3 km/h (3 Bft) 98,39 %
31.01.2016 00:50 5,9 C 97 % 1012,0 hPa 0,0 l/m 15,3 km/h (3 Bft) S 185 0 min 0,000 mm 0,0 UV-I 0 W/m 5,5 C 0,0 C 24,1 km/h (4 Bft) 100,00 %
31.01.2016 00:55 6,0 C 97 % 1012,0 hPa 0,2 l/m 15,1 km/h (3 Bft) S-SW 199 0 min 0,000 mm 0,0 UV-I 0 W/m 5,6 C 0,2 C 27,4 km/h (4 Bft) 100,00 %
31.01.2016 01:00 6,1 C 97 % 1012,0 hPa 0,0 l/m 11,2 km/h (2 Bft) SW 234 0 min 0,000 mm 0,0 UV-I 0 W/m 5,7 C 2,5 C 19,3 km/h (3 Bft) 99,11 %
31.01.2016 01:05 6,1 C 97 % 1012,0 hPa 0,0 l/m 14,6 km/h (3 Bft) W-SW 252 0 min 0,000 mm 0,0 UV-I 0 W/m 5,7 C 0,6 C 35,4 km/h (5 Bft) 95,83 %
31.01.2016 01:10 6,3 C 96 % 1012,0 hPa 0,0 l/m 18,2 km/h (3 Bft) SW 226 0 min 0,000 mm 0,0 UV-I 0 W/m 5,7 C -0,8 C 29,0 km/h (5 Bft) 95,04 %
31.01.2016 01:15 6,4 C 96 % 1012,0 hPa 0,0 l/m 22,1 km/h (4 Bft) W-SW 250 0 min 0,000 mm 0,0 UV-I 0 W/m 5,8 C -2,1 C 41,8 km/h (6 Bft) 97,50 %
31.01.2016 01:20 6,6 C 95 % 1012,0 hPa 0,2 l/m 23,2 km/h (4 Bft) W-SW 250 0 min 0,000 mm 0,0 UV-I 0 W/m 5,9 C -2,2 C 33,8 km/h (5 Bft) 98,11 %
31.01.2016 01:25 6,6 C 95 % 1012,0 hPa 0,0 l/m 16,9 km/h (3 Bft) SW 215 0 min 0,000 mm 0,0 UV-I 0 W/m 5,9 C 0,1 C 27,4 km/h (4 Bft) 97,58 %
31.01.2016 01:30 6,5 C 95 % 1012,0 hPa 0,0 l/m 17,8 km/h (3 Bft) SW 225 0 min 0,000 mm 0,0 UV-I 0 W/m 5,8 C -0,4 C 27,4 km/h (4 Bft) 97,27 %
31.01.2016 01:35 6,5 C 95 % 1012,0 hPa 0,0 l/m 17,9 km/h (3 Bft) S 191 0 min 0,000 mm 0,0 UV-I 0 W/m 5,8 C -0,4 C 27,4 km/h (4 Bft) 96,85 %
31.01.2016 01:40 6,5 C 95 % 1012,0 hPa 0,0 l/m 17,1 km/h (3 Bft) SW 220 0 min 0,000 mm 0,0 UV-I 0 W/m 5,8 C -0,1 C 29,0 km/h (5 Bft) 98,21 %
31.01.2016 01:45 6,5 C 95 % 1012,0 hPa 0,0 l/m 16,9 km/h (3 Bft) W 260 0 min 0,000 mm 0,0 UV-I 0 W/m 5,8 C 0,0 C 24,1 km/h (4 Bft) 99,10 %
31.01.2016 01:50 6,5 C 95 % 1012,1 hPa 0,0 l/m 17,2 km/h (3 Bft) SW 224 0 min 0,000 mm 0,0 UV-I 0 W/m 5,8 C -0,1 C 25,7 km/h (4 Bft) 99,23 %
31.01.2016 01:55 6,5 C 95 % 1012,1 hPa 0,2 l/m 16,5 km/h (3 Bft) W-SW 246 0 min 0,000 mm 0,0 UV-I 0 W/m 5,8 C 0,2 C 24,1 km/h (4 Bft) 100,00 %
31.01.2016 02:00 6,5 C 95 % 1012,1 hPa 0,0 l/m 18,5 km/h (3 Bft) S-SW 203 0 min 0,000 mm 0,0 UV-I 0 W/m 5,8 C -0,7 C 27,4 km/h (4 Bft) 100,00 %
31.01.2016 02:05 6,6 C 95 % 1012,0 hPa 0,0 l/m 19,1 km/h (3 Bft) W-SW 241 0 min 0,000 mm 0,0 UV-I 0 W/m 5,9 C -0,8 C 33,8 km/h (5 Bft) 100,00 %
31.01.2016 02:10 6,6 C 95 % 1012,0 hPa 0,0 l/m 19,8 km/h (3 Bft) W-SW 251 0 min 0,000 mm 0,0 UV-I 0 W/m 5,9 C -1,0 C 32,2 km/h (5 Bft) 99,12 %
31.01.2016 02:15 6,6 C 94 % 1012,0 hPa 0,0 l/m 21,8 km/h (4 Bft) SW 232 0 min 0,000 mm 0,0 UV-I 0 W/m 5,7 C -1,7 C 35,4 km/h (5 Bft) 99,15 %
31.01.2016 02:20 6,6 C 94 % 1012,1 hPa 0,0 l/m 18,0 km/h (3 Bft) S-SW 213 0 min 0,000 mm 0,0 UV-I 0 W/m 5,7 C -0,3 C 29,0 km/h (5 Bft) 100,00 %
31.01.2016 02:25 6,6 C 94 % 1012,3 hPa 0,2 l/m 19,0 km/h (3 Bft) SW 232 0 min 0,000 mm 0,0 UV-I 0 W/m 5,7 C -0,7 C 30,6 km/h (5 Bft) 100,00 %
31.01.2016 02:30 6,6 C 95 % 1012,5 hPa 0,4 l/m 17,0 km/h (3 Bft) W 273 0 min 0,000 mm 0,0 UV-I 0 W/m 5,9 C 0,1 C 27,4 km/h (4 Bft) 100,00 %
31.01.2016 02:35 6,5 C 95 % 1012,6 hPa 1,0 l/m 13,5 km/h (3 Bft) W 274 0 min 0,000 mm 0,0 UV-I 0 W/m 5,8 C 1,7 C 27,4 km/h (4 Bft) 99,08 %
31.01.2016 02:40 6,4 C 96 % 1012,8 hPa 0,0 l/m 14,4 km/h (3 Bft) W-SW 253 0 min 0,000 mm 0,0 UV-I 0 W/m 5,8 C 1,1 C 24,1 km/h (4 Bft) 100,00 %
31.01.2016 02:45 6,4 C 95 % 1012,7 hPa 0,2 l/m 19,9 km/h (4 Bft) SW 235 0 min 0,000 mm 0,0 UV-I 0 W/m 5,7 C -1,3 C 35,4 km/h (5 Bft) 98,32 %
31.01.2016 02:50 6,5 C 94 % 1012,8 hPa 0,0 l/m 18,5 km/h (3 Bft) W 265 0 min 0,000 mm 0,0 UV-I 0 W/m 5,6 C -0,7 C 32,2 km/h (5 Bft) 99,19 %
31.01.2016 02:55 6,4 C 93 % 1012,8 hPa 0,0 l/m 17,5 km/h (3 Bft) W 265 0 min 0,000 mm 0,0 UV-I 0 W/m 5,4 C -0,4 C 29,0 km/h (5 Bft) 100,00 %
31.01.2016 03:00 6,3 C 89 % 1013,0 hPa 0,0 l/m 20,6 km/h (4 Bft) W-NW 298 0 min 0,000 mm 0,0 UV-I 0 W/m 4,6 C -1,7 C 45,1 km/h (6 Bft) 99,17 %
31.01.2016 03:05 6,2 C 85 % 1013,2 hPa 0,0 l/m 19,8 km/h (3 Bft) W 277 0 min 0,000 mm 0,0 UV-I 0 W/m 3,9 C -1,5 C 41,8 km/h (6 Bft) 99,15 %
31.01.2016 03:10 5,9 C 85 % 1013,2 hPa 0,0 l/m 21,6 km/h (4 Bft) W-SW 258 0 min 0,000 mm 0,0 UV-I 0 W/m 3,6 C -2,6 C 54,7 km/h (7 Bft) 99,17 %
31.01.2016 03:15 5,8 C 83 % 1013,4 hPa 0,0 l/m 27,1 km/h (4 Bft) W-SW 240 0 min 0,000 mm 0,0 UV-I 0 W/m 3,1 C -4,5 C 53,1 km/h (7 Bft) 99,12 %
31.01.2016 03:20 5,7 C 85 % 1013,8 hPa 0,0 l/m 22,9 km/h (4 Bft) W-SW 249 0 min 0,000 mm 0,0 UV-I 0 W/m 3,4 C -3,3 C 46,7 km/h (6 Bft) 96,61 %
31.01.2016 03:25 5,4 C 87 % 1013,9 hPa 0,0 l/m 19,4 km/h (3 Bft) SW 233 0 min 0,000 mm 0,0 UV-I 0 W/m 3,4 C -2,4 C 33,8 km/h (5 Bft) 96,61 %
31.01.2016 03:30 5,1 C 88 % 1013,9 hPa 0,0 l/m 23,0 km/h (4 Bft) W-NW 287 0 min 0,000 mm 0,0 UV-I 0 W/m 3,3 C -4,1 C 41,8 km/h (6 Bft) 96,58 %
31.01.2016 03:35 4,8 C 89 % 1013,8 hPa 0,0 l/m 20,8 km/h (4 Bft) W 260 0 min 0,000 mm 0,0 UV-I 0 W/m 3,1 C -3,7 C 41,8 km/h (6 Bft) 96,43 %
31.01.2016 03:40 4,6 C 89 % 1014,1 hPa 0,0 l/m 18,2 km/h (3 Bft) W 261 0 min 0,000 mm 0,0 UV-I 0 W/m 2,9 C -2,9 C 30,6 km/h (5 Bft) 97,39 %
31.01.2016 03:45 4,4 C 89 % 1014,1 hPa 0,0 l/m 24,8 km/h (4 Bft) W-SW 246 0 min 0,000 mm 0,0 UV-I 0 W/m 2,7 C -5,7 C 38,6 km/h (5 Bft) 96,49 %
31.01.2016 03:50 4,3 C 89 % 1014,1 hPa 0,0 l/m 18,8 km/h (3 Bft) W-NW 284 0 min 0,000 mm 0,0 UV-I 0 W/m 2,7 C -3,6 C 37,0 km/h (5 Bft) 95,97 %
31.01.2016 03:55 4,3 C 90 % 1014,1 hPa 0,0 l/m 18,3 km/h (3 Bft) W-NW 293 0 min 0,000 mm 0,0 UV-I 0 W/m 2,8 C -3,4 C 30,6 km/h (5 Bft) 96,67 %
31.01.2016 04:00 4,2 C 90 % 1014,1 hPa 0,0 l/m 17,2 km/h (3 Bft) SW 225 0 min 0,025 mm 0,0 UV-I 0 W/m 2,7 C -3,0 C 25,7 km/h (4 Bft) 100,00 %
31.01.2016 04:05 4,2 C 90 % 1014,4 hPa 0,0 l/m 17,6 km/h (3 Bft) W 268 0 min 0,000 mm 0,0 UV-I 0 W/m 2,7 C -3,2 C 27,4 km/h (4 Bft) 98,94 %
31.01.2016 04:10 4,2 C 90 % 1014,6 hPa 0,0 l/m 21,4 km/h (4 Bft) W-SW 242 0 min 0,000 mm 0,0 UV-I 0 W/m 2,7 C -4,8 C 33,8 km/h (5 Bft) 99,21 %
31.01.2016 04:15 4,2 C 89 % 1014,5 hPa 0,0 l/m 22,4 km/h (4 Bft) W-NW 284 0 min 0,000 mm 0,0 UV-I 0 W/m 2,6 C -5,1 C 41,8 km/h (6 Bft) 96,61 %
31.01.2016 04:20 4,2 C 90 % 1014,5 hPa 0,0 l/m 19,4 km/h (3 Bft) NW 307 0 min 0,000 mm 0,0 UV-I 0 W/m 2,7 C -4,0 C 30,6 km/h (5 Bft) 100,00 %
31.01.2016 04:25 4,1 C 90 % 1014,6 hPa 0,0 l/m 21,1 km/h (4 Bft) W-NW 287 0 min 0,000 mm 0,0 UV-I 0 W/m 2,6 C -4,8 C 35,4 km/h (5 Bft) 100,00 %
31.01.2016 04:30 4,1 C 90 % 1014,7 hPa 0,2 l/m 22,9 km/h (4 Bft) W-SW 257 0 min 0,000 mm 0,0 UV-I 0 W/m 2,6 C -5,4 C 33,8 km/h (5 Bft) 100,00 %
31.01.2016 04:35 4,1 C 89 % 1014,6 hPa 0,0 l/m 23,4 km/h (4 Bft) SW 233 0 min 0,000 mm 0,0 UV-I 0 W/m 2,5 C -5,6 C 37,0 km/h (5 Bft) 98,26 %
31.01.2016 04:40 4,0 C 89 % 1014,7 hPa 0,0 l/m 24,9 km/h (4 Bft) W-SW 242 0 min 0,000 mm 0,0 UV-I 0 W/m 2,4 C -6,3 C 40,2 km/h (6 Bft) 97,50 %
31.01.2016 04:45 4,0 C 89 % 1014,7 hPa 0,0 l/m 23,1 km/h (4 Bft) W-SW 246 0 min 0,000 mm 0,0 UV-I 0 W/m 2,4 C -5,6 C 37,0 km/h (5 Bft) 98,39 %
31.01.2016 04:50 3,9 C 89 % 1014,8 hPa 0,0 l/m 21,4 km/h (4 Bft) SW 225 0 min 0,000 mm 0,0 UV-I 0 W/m 2,3 C -5,2 C 33,8 km/h (5 Bft) 98,20 %
31.01.2016 04:55 3,9 C 89 % 1014,7 hPa 0,0 l/m 20,2 km/h (4 Bft) SW 229 0 min 0,000 mm 0,0 UV-I 0 W/m 2,3 C -4,7 C 33,8 km/h (5 Bft) 100,00 %
31.01.2016 05:00 3,8 C 90 % 1014,8 hPa 0,0 l/m 25,2 km/h (4 Bft) SW 236 0 min 0,026 mm 0,0 UV-I 0 W/m 2,3 C -6,6 C 41,8 km/h (6 Bft) 98,31 %
31.01.2016 05:05 3,7 C 91 % 1014,8 hPa 0,0 l/m 20,6 km/h (4 Bft) W-SW 237 0 min 0,000 mm 0,0 UV-I 0 W/m 2,4 C -5,1 C 37,0 km/h (5 Bft) 99,17 %
31.01.2016 05:10 3,5 C 91 % 1014,8 hPa 0,2 l/m 24,0 km/h (4 Bft) S 190 0 min 0,000 mm 0,0 UV-I 0 W/m 2,2 C -6,6 C 41,8 km/h (6 Bft) 100,00 %
31.01.2016 05:15 3,4 C 91 % 1014,8 hPa 0,0 l/m 24,6 km/h (4 Bft) W 281 0 min 0,000 mm 0,0 UV-I 0 W/m 2,1 C -7,0 C 38,6 km/h (5 Bft) 99,13 %
31.01.2016 05:20 3,3 C 92 % 1015,0 hPa 0,0 l/m 21,3 km/h (4 Bft) W-SW 258 0 min 0,000 mm 0,0 UV-I 0 W/m 2,1 C -5,9 C 32,2 km/h (5 Bft) 97,44 %
31.01.2016 05:25 3,2 C 92 % 1015,1 hPa 0,0 l/m 25,7 km/h (4 Bft) SW 227 0 min 0,000 mm 0,0 UV-I 0 W/m 2,0 C -7,6 C 41,8 km/h (6 Bft) 98,35 %
31.01.2016 05:30 3,2 C 92 % 1015,2 hPa 0,0 l/m 24,0 km/h (4 Bft) W-SW 237 0 min 0,000 mm 0,0 UV-I 0 W/m 2,0 C -7,0 C 37,0 km/h (5 Bft) 95,83 %
31.01.2016 05:35 3,1 C 93 % 1015,2 hPa 0,0 l/m 24,9 km/h (4 Bft) W-SW 255 0 min 0,000 mm 0,0 UV-I 0 W/m 2,1 C -7,5 C 35,4 km/h (5 Bft) 98,21 %
31.01.2016 05:40 3,0 C 93 % 1015,3 hPa 0,0 l/m 23,6 km/h (4 Bft) SW 236 0 min 0,000 mm 0,0 UV-I 0 W/m 2,0 C -7,2 C 40,2 km/h (6 Bft) 95,87 %
31.01.2016 05:45 2,9 C 93 % 1015,4 hPa 0,0 l/m 21,0 km/h (4 Bft) W-SW 258 0 min 0,000 mm 0,0 UV-I 0 W/m 1,9 C -6,3 C 37,0 km/h (5 Bft) 94,87 %
31.01.2016 05:50 2,8 C 94 % 1015,5 hPa 0,2 l/m 20,7 km/h (4 Bft) S-SW 196 0 min 0,000 mm 0,0 UV-I 0 W/m 1,9 C -6,3 C 33,8 km/h (5 Bft) 97,32 %
31.01.2016 05:55 2,8 C 94 % 1015,4 hPa 0,0 l/m 18,7 km/h (3 Bft) W-SW 239 0 min 0,000 mm 0,0 UV-I 0 W/m 1,9 C -5,4 C 32,2 km/h (5 Bft) 95,93 %
31.01.2016 06:00 2,7 C 94 % 1015,5 hPa 0,0 l/m 21,1 km/h (4 Bft) W-SW 244 0 min 0,025 mm 0,0 UV-I 0 W/m 1,8 C -6,6 C 35,4 km/h (5 Bft) 98,31 %
31.01.2016 06:05 2,6 C 94 % 1015,5 hPa 0,0 l/m 21,8 km/h (4 Bft) S-SW 205 0 min 0,000 mm 0,0 UV-I 0 W/m 1,7 C -7,0 C 43,5 km/h (6 Bft) 100,00 %
31.01.2016 06:10 2,5 C 94 % 1015,5 hPa 0,0 l/m 21,0 km/h (4 Bft) W 267 0 min 0,000 mm 0,0 UV-I 0 W/m 1,6 C -6,8 C 41,8 km/h (6 Bft) 99,15 %
31.01.2016 06:15 2,4 C 94 % 1015,7 hPa 0,2 l/m 23,7 km/h (4 Bft) SW 222 0 min 0,000 mm 0,0 UV-I 0 W/m 1,5 C -8,0 C 35,4 km/h (5 Bft) 99,15 %
31.01.2016 06:20 2,4 C 94 % 1015,7 hPa 0,0 l/m 22,8 km/h (4 Bft) S-SW 194 0 min 0,000 mm 0,0 UV-I 0 W/m 1,5 C -7,7 C 35,4 km/h (5 Bft) 99,13 %
31.01.2016 06:25 2,4 C 94 % 1015,9 hPa 0,0 l/m 19,5 km/h (3 Bft) W-SW 251 0 min 0,000 mm 0,0 UV-I 0 W/m 1,5 C -6,3 C 32,2 km/h (5 Bft) 98,37 %
31.01.2016 06:30 2,3 C 95 % 1015,9 hPa 0,0 l/m 19,2 km/h (3 Bft) SW 221 0 min 0,000 mm 0,0 UV-I 0 W/m 1,6 C -6,3 C 37,0 km/h (5 Bft) 98,21 %
31.01.2016 06:35 2,4 C 94 % 1015,9 hPa 0,0 l/m 19,1 km/h (3 Bft) S-SW 207 0 min 0,000 mm 0,0 UV-I 0 W/m 1,5 C -6,1 C 30,6 km/h (5 Bft) 99,17 %
31.01.2016 06:40 2,4 C 94 % 1015,9 hPa 0,0 l/m 18,3 km/h (3 Bft) SW 230 0 min 0,000 mm 0,0 UV-I 0 W/m 1,5 C -5,8 C 37,0 km/h (5 Bft) 98,31 %
31.01.2016 06:45 2,4 C 94 % 1015,9 hPa 0,0 l/m 17,8 km/h (3 Bft) SW 232 0 min 0,000 mm 0,0 UV-I 0 W/m 1,5 C -5,5 C 35,4 km/h (5 Bft) 99,15 %
31.01.2016 06:50 2,5 C 94 % 1016,1 hPa 0,0 l/m 18,1 km/h (3 Bft) SW 227 0 min 0,000 mm 0,0 UV-I 0 W/m 1,6 C -5,5 C 32,2 km/h (5 Bft) 100,00 %
31.01.2016 06:55 2,6 C 94 % 1015,9 hPa 0,2 l/m 19,1 km/h (3 Bft) SW 221 0 min 0,000 mm 0,0 UV-I 0 W/m 1,7 C -5,9 C 30,6 km/h (5 Bft) 100,00 %
31.01.2016 07:00 2,6 C 94 % 1016,1 hPa 0,0 l/m 16,5 km/h (3 Bft) SW 225 0 min 0,000 mm 0,0 UV-I 0 W/m 1,7 C -4,6 C 30,6 km/h (5 Bft) 98,45 %
31.01.2016 07:05 2,5 C 94 % 1016,0 hPa 0,0 l/m 20,2 km/h (4 Bft) S-SW 199 0 min 0,000 mm 0,0 UV-I 0 W/m 1,6 C -6,5 C 37,0 km/h (5 Bft) 98,31 %
31.01.2016 07:10 2,5 C 94 % 1016,1 hPa 0,0 l/m 21,2 km/h (4 Bft) S-SW 205 0 min 0,000 mm 0,0 UV-I 0 W/m 1,6 C -6,9 C 32,2 km/h (5 Bft) 99,06 %
31.01.2016 07:15 2,5 C 94 % 1016,2 hPa 0,0 l/m 18,6 km/h (3 Bft) W-SW 241 0 min 0,000 mm 0,0 UV-I 0 W/m 1,6 C -5,8 C 30,6 km/h (5 Bft) 99,13 %
31.01.2016 07:20 2,5 C 94 % 1016,3 hPa 0,0 l/m 16,9 km/h (3 Bft) SW 225 0 min 0,000 mm 0,0 UV-I 0 W/m 1,6 C -5,0 C 27,4 km/h (4 Bft) 99,21 %
31.01.2016 07:25 2,5 C 94 % 1016,2 hPa 0,0 l/m 19,8 km/h (3 Bft) SW 217 0 min 0,000 mm 0,0 UV-I 0 W/m 1,6 C -6,3 C 30,6 km/h (5 Bft) 99,08 %
31.01.2016 07:30 2,4 C 94 % 1016,2 hPa 0,2 l/m 15,7 km/h (3 Bft) SW 227 0 min 0,000 mm 0,0 UV-I 0 W/m 1,5 C -4,5 C 32,2 km/h (5 Bft) 99,21 %
31.01.2016 07:35 2,4 C 94 % 1016,4 hPa 0,0 l/m 16,0 km/h (3 Bft) SW 219 0 min 0,000 mm 0,0 UV-I 0 W/m 1,5 C -4,6 C 30,6 km/h (5 Bft) 98,11 %
31.01.2016 07:40 2,4 C 94 % 1016,4 hPa 0,0 l/m 16,1 km/h (3 Bft) SW 231 0 min 0,000 mm 0,0 UV-I 0 W/m 1,5 C -4,7 C 27,4 km/h (4 Bft) 96,92 %
31.01.2016 07:45 2,4 C 94 % 1016,5 hPa 0,0 l/m 18,2 km/h (3 Bft) W 269 0 min 0,000 mm 0,0 UV-I 0 W/m 1,5 C -5,7 C 30,6 km/h (5 Bft) 95,73 %
31.01.2016 07:50 2,4 C 94 % 1016,6 hPa 0,0 l/m 17,5 km/h (3 Bft) SW 217 0 min 0,000 mm 0,0 UV-I 0 W/m 1,5 C -5,4 C 30,6 km/h (5 Bft) 97,25 %
31.01.2016 07:55 2,3 C 94 % 1016,7 hPa 0,2 l/m 17,8 km/h (3 Bft) W-SW 247 0 min 0,000 mm 0,0 UV-I 4 W/m 1,4 C -5,7 C 29,0 km/h (5 Bft) 95,97 %
31.01.2016 08:00 2,3 C 94 % 1016,8 hPa 0,2 l/m 19,0 km/h (3 Bft) SW 225 0 min 0,000 mm 0,0 UV-I 5 W/m 1,4 C -6,2 C 30,6 km/h (5 Bft) 95,76 %
31.01.2016 08:05 2,2 C 95 % 1016,8 hPa 0,0 l/m 17,4 km/h (3 Bft) W-SW 239 0 min 0,000 mm 0,0 UV-I 5 W/m 1,5 C -5,6 C 27,4 km/h (4 Bft) 97,39 %
31.01.2016 08:10 2,1 C 95 % 1016,8 hPa 0,2 l/m 17,2 km/h (3 Bft) W 265 0 min 0,000 mm 0,0 UV-I 7 W/m 1,4 C -5,6 C 32,2 km/h (5 Bft) 97,37 %
31.01.2016 08:15 2,1 C 95 % 1016,9 hPa 0,2 l/m 19,3 km/h (3 Bft) W 263 0 min 0,000 mm 0,0 UV-I 6 W/m 1,4 C -6,6 C 29,0 km/h (5 Bft) 98,32 %
31.01.2016 08:20 2,0 C 95 % 1016,8 hPa 0,0 l/m 15,0 km/h (3 Bft) W 270 0 min 0,000 mm 0,0 UV-I 6 W/m 1,3 C -4,6 C 25,7 km/h (4 Bft) 98,35 %
31.01.2016 08:25 2,0 C 95 % 1016,8 hPa 0,0 l/m 16,0 km/h (3 Bft) W 259 0 min 0,000 mm 0,0 UV-I 7 W/m 1,3 C -5,1 C 29,0 km/h (5 Bft) 97,14 %
31.01.2016 08:30 1,9 C 95 % 1016,9 hPa 0,2 l/m 18,2 km/h (3 Bft) SW 227 0 min 0,000 mm 0,0 UV-I 7 W/m 1,2 C -6,4 C 27,4 km/h (4 Bft) 98,46 %
31.01.2016 08:35 1,9 C 95 % 1016,8 hPa 0,2 l/m 18,2 km/h (3 Bft) SW 235 0 min 0,000 mm 0,0 UV-I 10 W/m 1,2 C -6,4 C 29,0 km/h (5 Bft) 100,00 %
31.01.2016 08:40 1,8 C 95 % 1016,8 hPa 0,0 l/m 16,0 km/h (3 Bft) W-SW 238 0 min 0,000 mm 0,0 UV-I 11 W/m 1,1 C -5,4 C 30,6 km/h (5 Bft) 100,00 %
31.01.2016 08:45 1,8 C 95 % 1016,8 hPa 0,0 l/m 17,6 km/h (3 Bft) SW 214 0 min 0,000 mm 0,0 UV-I 11 W/m 1,1 C -6,2 C 27,4 km/h (4 Bft) 97,39 %
31.01.2016 08:50 1,8 C 95 % 1016,8 hPa 0,2 l/m 15,8 km/h (3 Bft) W-SW 257 0 min 0,000 mm 0,0 UV-I 12 W/m 1,1 C -5,2 C 25,7 km/h (4 Bft) 99,17 %
31.01.2016 08:55 1,7 C 95 % 1016,8 hPa 0,0 l/m 14,7 km/h (3 Bft) W 264 0 min 0,000 mm 0,0 UV-I 13 W/m 1,0 C -4,7 C 27,4 km/h (4 Bft) 100,00 %
31.01.2016 09:00 1,7 C 96 % 1016,9 hPa 0,2 l/m 14,4 km/h (3 Bft) W-SW 239 0 min 0,000 mm 0,0 UV-I 15 W/m 1,1 C -4,6 C 20,9 km/h (4 Bft) 99,15 %
31.01.2016 09:05 1,6 C 96 % 1016,8 hPa 0,0 l/m 13,8 km/h (3 Bft) SW 227 0 min 0,000 mm 0,0 UV-I 18 W/m 1,0 C -4,3 C 22,5 km/h (4 Bft) 99,15 %
31.01.2016 09:10 1,6 C 96 % 1016,8 hPa 0,2 l/m 11,7 km/h (2 Bft) W-SW 239 0 min 0,000 mm 0,0 UV-I 19 W/m 1,0 C -3,0 C 20,9 km/h (4 Bft) 100,00 %
31.01.2016 09:15 1,5 C 96 % 1016,7 hPa 0,0 l/m 10,0 km/h (2 Bft) SW 216 0 min 0,000 mm 0,0 UV-I 22 W/m 0,9 C -1,8 C 16,1 km/h (3 Bft) 97,62 %
31.01.2016 09:20 1,5 C 96 % 1016,7 hPa 0,0 l/m 9,2 km/h (2 Bft) SW 226 0 min 0,000 mm 0,0 UV-I 29 W/m 0,9 C -1,1 C 19,3 km/h (3 Bft) 100,00 %
31.01.2016 09:25 1,6 C 96 % 1016,8 hPa 0,2 l/m 10,9 km/h (2 Bft) W-SW 238 0 min 0,000 mm 0,0 UV-I 34 W/m 1,0 C -2,4 C 19,3 km/h (3 Bft) 99,17 %
31.01.2016 09:30 1,6 C 97 % 1016,7 hPa 0,0 l/m 9,7 km/h (2 Bft) SW 228 0 min 0,000 mm 0,0 UV-I 42 W/m 1,2 C -1,4 C 17,7 km/h (3 Bft) 99,15 %
31.01.2016 09:35 1,6 C 97 % 1016,7 hPa 0,0 l/m 10,3 km/h (2 Bft) SW 229 0 min 0,000 mm 0,0 UV-I 51 W/m 1,2 C -1,9 C 17,7 km/h (3 Bft) 100,00 %
31.01.2016 09:40 1,7 C 97 % 1016,7 hPa 0,0 l/m 9,6 km/h (2 Bft) W 262 0 min 0,000 mm 0,0 UV-I 72 W/m 1,3 C -1,3 C 16,1 km/h (3 Bft) 98,35 %
31.01.2016 09:45 1,8 C 97 % 1016,8 hPa 0,0 l/m 7,7 km/h (2 Bft) W-SW 240 0 min 0,000 mm 0,0 UV-I 79 W/m 1,4 C 0,5 C 16,1 km/h (3 Bft) 96,58 %
31.01.2016 09:50 1,8 C 97 % 1016,8 hPa 0,0 l/m 7,7 km/h (2 Bft) W-SW 244 0 min 0,000 mm 0,0 UV-I 70 W/m 1,4 C 0,5 C 14,5 km/h (3 Bft) 98,26 %
31.01.2016 09:55 1,9 C 97 % 1016,6 hPa 0,0 l/m 6,4 km/h (2 Bft) W-SW 238 0 min 0,000 mm 0,0 UV-I 75 W/m 1,5 C 1,9 C 11,3 km/h (2 Bft) 96,83 %
31.01.2016 10:00 2,1 C 97 % 1016,5 hPa 0,0 l/m 7,5 km/h (2 Bft) W-SW 253 0 min 0,026 mm 0,0 UV-I 85 W/m 1,7 C 1,0 C 14,5 km/h (3 Bft) 96,43 %
31.01.2016 10:05 2,2 C 97 % 1016,5 hPa 0,0 l/m 11,4 km/h (2 Bft) W 269 0 min 0,000 mm 0,0 UV-I 101 W/m 1,8 C -2,1 C 19,3 km/h (3 Bft) 95,87 %
31.01.2016 10:10 2,3 C 97 % 1016,4 hPa 0,0 l/m 11,0 km/h (2 Bft) W-SW 257 0 min 0,000 mm 0,0 UV-I 107 W/m 1,9 C -1,7 C 19,3 km/h (3 Bft) 95,41 %
31.01.2016 10:15 2,4 C 96 % 1016,4 hPa 0,0 l/m 12,0 km/h (2 Bft) W-SW 248 0 min 0,000 mm 0,0 UV-I 107 W/m 1,8 C -2,2 C 22,5 km/h (4 Bft) 98,41 %
31.01.2016 10:20 2,5 C 96 % 1016,3 hPa 0,0 l/m 13,6 km/h (3 Bft) W 272 0 min 0,000 mm 0,0 UV-I 114 W/m 1,9 C -3,1 C 24,1 km/h (4 Bft) 99,15 %
31.01.2016 10:25 2,6 C 96 % 1016,2 hPa 0,0 l/m 12,3 km/h (3 Bft) W-SW 249 0 min 0,000 mm 0,0 UV-I 126 W/m 2,0 C -2,2 C 20,9 km/h (4 Bft) 99,12 %
31.01.2016 10:30 2,7 C 96 % 1016,3 hPa 0,0 l/m 13,8 km/h (3 Bft) W-SW 242 0 min 0,000 mm 0,0 UV-I 122 W/m 2,1 C -3,0 C 19,3 km/h (3 Bft) 99,15 %
31.01.2016 10:35 2,8 C 96 % 1016,3 hPa 0,0 l/m 11,2 km/h (2 Bft) W-SW 248 0 min 0,000 mm 0,0 UV-I 116 W/m 2,2 C -1,2 C 19,3 km/h (3 Bft) 100,00 %
31.01.2016 10:40 2,8 C 96 % 1016,4 hPa 0,0 l/m 11,7 km/h (2 Bft) W-SW 250 0 min 0,000 mm 0,0 UV-I 97 W/m 2,2 C -1,6 C 19,3 km/h (3 Bft) 99,22 %
31.01.2016 10:45 2,9 C 95 % 1016,4 hPa 0,0 l/m 11,1 km/h (2 Bft) SW 228 0 min 0,000 mm 0,0 UV-I 74 W/m 2,2 C -1,0 C 20,9 km/h (4 Bft) 97,46 %
31.01.2016 10:50 2,9 C 95 % 1016,3 hPa 0,0 l/m 12,1 km/h (2 Bft) SW 221 0 min 0,000 mm 0,0 UV-I 78 W/m 2,2 C -1,7 C 20,9 km/h (4 Bft) 99,10 %
31.01.2016 10:55 3,0 C 95 % 1016,2 hPa 0,0 l/m 14,6 km/h (3 Bft) SW 233 0 min 0,000 mm 0,0 UV-I 80 W/m 2,3 C -3,1 C 22,5 km/h (4 Bft) 99,08 %
31.01.2016 11:00 3,1 C 95 % 1016,2 hPa 0,0 l/m 10,5 km/h (2 Bft) W-SW 242 0 min 0,050 mm 0,0 UV-I 88 W/m 2,4 C -0,4 C 22,5 km/h (4 Bft) 98,39 %
31.01.2016 11:05 3,2 C 95 % 1016,1 hPa 0,0 l/m 13,7 km/h (3 Bft) SW 229 0 min 0,000 mm 0,0 UV-I 113 W/m 2,5 C -2,4 C 22,5 km/h (4 Bft) 99,17 %
31.01.2016 11:10 3,3 C 94 % 1016,1 hPa 0,0 l/m 15,4 km/h (3 Bft) S-SW 211 0 min 0,000 mm 0,0 UV-I 109 W/m 2,4 C -3,2 C 29,0 km/h (5 Bft) 100,00 %
31.01.2016 11:15 3,4 C 94 % 1016,0 hPa 0,0 l/m 13,2 km/h (3 Bft) SW 225 0 min 0,000 mm 0,0 UV-I 103 W/m 2,5 C -1,8 C 22,5 km/h (4 Bft) 99,08 %
31.01.2016 11:20 3,4 C 93 % 1015,9 hPa 0,0 l/m 15,4 km/h (3 Bft) SW 236 0 min 0,000 mm 0,0 UV-I 108 W/m 2,4 C -3,1 C 25,7 km/h (4 Bft) 99,19 %
31.01.2016 11:25 3,5 C 93 % 1015,9 hPa 0,0 l/m 15,2 km/h (3 Bft) W-SW 244 0 min 0,000 mm 0,0 UV-I 115 W/m 2,5 C -2,8 C 24,1 km/h (4 Bft) 98,31 %
31.01.2016 11:30 3,6 C 93 % 1015,9 hPa 0,0 l/m 15,5 km/h (3 Bft) SW 225 0 min 0,000 mm 0,0 UV-I 110 W/m 2,6 C -2,9 C 27,4 km/h (4 Bft) 98,97 %
31.01.2016 11:35 3,7 C 93 % 1015,8 hPa 0,0 l/m 12,9 km/h (3 Bft) W-SW 245 0 min 0,000 mm 0,1 UV-I 117 W/m 2,7 C -1,3 C 19,3 km/h (3 Bft) 98,41 %
31.01.2016 11:40 3,8 C 93 % 1015,7 hPa 0,0 l/m 12,6 km/h (3 Bft) SW 225 0 min 0,000 mm 0,5 UV-I 154 W/m 2,8 C -1,0 C 17,7 km/h (3 Bft) 100,00 %
31.01.2016 11:45 3,9 C 93 % 1015,6 hPa 0,0 l/m 11,8 km/h (2 Bft) SW 236 0 min 0,000 mm 0,6 UV-I 213 W/m 2,9 C -0,4 C 24,1 km/h (4 Bft) 94,59 %
31.01.2016 11:50 4,0 C 93 % 1015,6 hPa 0,0 l/m 12,1 km/h (2 Bft) SW 233 5 min 0,000 mm 0,7 UV-I 243 W/m 3,0 C -0,5 C 24,1 km/h (4 Bft) 96,69 %
31.01.2016 11:55 4,2 C 93 % 1015,5 hPa 0,0 l/m 15,1 km/h (3 Bft) W-SW 254 0 min 0,000 mm 0,7 UV-I 222 W/m 3,2 C -1,9 C 25,7 km/h (4 Bft) 97,46 %
31.01.2016 12:00 4,3 C 92 % 1015,4 hPa 0,0 l/m 15,1 km/h (3 Bft) W-SW 252 0 min 0,077 mm 0,6 UV-I 198 W/m 3,1 C -1,8 C 22,5 km/h (4 Bft) 96,75 %
31.01.2016 12:05 4,3 C 92 % 1015,3 hPa 0,0 l/m 15,8 km/h (3 Bft) W-SW 246 0 min 0,000 mm 0,6 UV-I 177 W/m 3,1 C -2,2 C 24,1 km/h (4 Bft) 97,32 %
31.01.2016 12:10 4,4 C 92 % 1015,3 hPa 0,0 l/m 15,8 km/h (3 Bft) W-SW 246 0 min 0,000 mm 0,5 UV-I 166 W/m 3,2 C -2,1 C 29,0 km/h (5 Bft) 95,41 %
31.01.2016 12:15 4,4 C 92 % 1015,2 hPa 0,0 l/m 13,9 km/h (3 Bft) W-SW 246 0 min 0,000 mm 0,6 UV-I 168 W/m 3,2 C -1,1 C 25,7 km/h (4 Bft) 96,03 %
31.01.2016 12:20 4,5 C 92 % 1015,1 hPa 0,0 l/m 15,3 km/h (3 Bft) W-SW 242 0 min 0,000 mm 0,6 UV-I 167 W/m 3,3 C -1,7 C 22,5 km/h (4 Bft) 99,17 %
31.01.2016 12:25 4,7 C 91 % 1015,0 hPa 0,0 l/m 14,3 km/h (3 Bft) SW 233 0 min 0,000 mm 0,5 UV-I 162 W/m 3,4 C -0,9 C 25,7 km/h (4 Bft) 98,15 %
31.01.2016 12:30 4,7 C 91 % 1014,9 hPa 0,0 l/m 14,9 km/h (3 Bft) S-SW 198 0 min 0,000 mm 0,5 UV-I 154 W/m 3,4 C -1,2 C 27,4 km/h (4 Bft) 99,15 %
31.01.2016 12:35 4,7 C 91 % 1015,0 hPa 0,0 l/m 15,2 km/h (3 Bft) W-SW 250 0 min 0,000 mm 0,5 UV-I 142 W/m 3,4 C -1,4 C 24,1 km/h (4 Bft) 99,17 %
31.01.2016 12:40 4,8 C 90 % 1015,0 hPa 0,0 l/m 12,5 km/h (3 Bft) SW 222 0 min 0,000 mm 0,1 UV-I 130 W/m 3,3 C 0,2 C 25,7 km/h (4 Bft) 97,44 %
31.01.2016 12:45 4,8 C 90 % 1014,9 hPa 0,0 l/m 13,3 km/h (3 Bft) W 280 0 min 0,000 mm 0,0 UV-I 125 W/m 3,3 C -0,2 C 25,7 km/h (4 Bft) 96,69 %
31.01.2016 12:50 4,8 C 91 % 1015,0 hPa 0,0 l/m 11,2 km/h (2 Bft) SW 215 0 min 0,000 mm 0,0 UV-I 125 W/m 3,5 C 1,0 C 17,7 km/h (3 Bft) 99,10 %
31.01.2016 12:55 4,8 C 90 % 1015,0 hPa 0,0 l/m 15,2 km/h (3 Bft) W-SW 239 0 min 0,000 mm 0,0 UV-I 123 W/m 3,3 C -1,3 C 25,7 km/h (4 Bft) 100,00 %
31.01.2016 13:00 4,8 C 91 % 1015,1 hPa 0,0 l/m 14,7 km/h (3 Bft) SW 228 0 min 0,076 mm 0,0 UV-I 113 W/m 3,5 C -1,0 C 27,4 km/h (4 Bft) 100,00 %
31.01.2016 13:05 4,8 C 90 % 1015,0 hPa 0,0 l/m 16,3 km/h (3 Bft) W 273 0 min 0,000 mm 0,0 UV-I 106 W/m 3,3 C -1,8 C 25,7 km/h (4 Bft) 100,00 %
31.01.2016 13:10 4,8 C 91 % 1015,0 hPa 0,0 l/m 14,9 km/h (3 Bft) W-SW 245 0 min 0,000 mm 0,0 UV-I 94 W/m 3,5 C -1,1 C 24,1 km/h (4 Bft) 98,35 %
31.01.2016 13:15 4,8 C 90 % 1014,8 hPa 0,0 l/m 16,9 km/h (3 Bft) W-SW 247 0 min 0,000 mm 0,0 UV-I 84 W/m 3,3 C -2,1 C 29,0 km/h (5 Bft) 100,00 %
31.01.2016 13:20 4,8 C 90 % 1014,7 hPa 0,0 l/m 15,3 km/h (3 Bft) W-SW 248 0 min 0,000 mm 0,0 UV-I 82 W/m 3,3 C -1,3 C 25,7 km/h (4 Bft) 100,00 %
31.01.2016 13:25 4,8 C 90 % 1014,7 hPa 0,0 l/m 14,6 km/h (3 Bft) W 264 0 min 0,000 mm 0,0 UV-I 74 W/m 3,3 C -1,0 C 22,5 km/h (4 Bft) 99,13 %
31.01.2016 13:30 4,8 C 91 % 1014,7 hPa 0,0 l/m 14,4 km/h (3 Bft) W-NW 294 0 min 0,000 mm 0,0 UV-I 71 W/m 3,5 C -0,9 C 20,9 km/h (4 Bft) 100,00 %
31.01.2016 13:35 4,8 C 90 % 1014,6 hPa 0,0 l/m 13,1 km/h (3 Bft) SW 229 0 min 0,000 mm 0,0 UV-I 61 W/m 3,3 C -0,1 C 20,9 km/h (4 Bft) 98,26 %
31.01.2016 13:40 4,8 C 91 % 1014,5 hPa 0,0 l/m 13,7 km/h (3 Bft) SW 231 0 min 0,000 mm 0,0 UV-I 64 W/m 3,5 C -0,5 C 22,5 km/h (4 Bft) 99,13 %
31.01.2016 13:45 4,8 C 90 % 1014,5 hPa 0,0 l/m 13,0 km/h (3 Bft) SW 232 0 min 0,000 mm 0,0 UV-I 59 W/m 3,3 C -0,1 C 22,5 km/h (4 Bft) 99,17 %
31.01.2016 13:50 4,7 C 91 % 1014,6 hPa 0,0 l/m 11,8 km/h (2 Bft) W-SW 238 0 min 0,000 mm 0,0 UV-I 50 W/m 3,4 C 0,5 C 17,7 km/h (3 Bft) 97,52 %
31.01.2016 13:55 4,7 C 91 % 1014,5 hPa 0,0 l/m 14,7 km/h (3 Bft) W 271 0 min 0,000 mm 0,0 UV-I 46 W/m 3,4 C -1,1 C 19,3 km/h (3 Bft) 96,33 %
31.01.2016 14:00 4,6 C 92 % 1014,5 hPa 0,0 l/m 11,1 km/h (2 Bft) W 269 0 min 0,000 mm 0,0 UV-I 50 W/m 3,4 C 0,9 C 19,3 km/h (3 Bft) 96,67 %
31.01.2016 14:05 4,5 C 93 % 1014,5 hPa 0,0 l/m 12,5 km/h (3 Bft) SW 227 0 min 0,051 mm 0,0 UV-I 46 W/m 3,5 C -0,1 C 20,9 km/h (4 Bft) 97,58 %
31.01.2016 14:10 4,4 C 93 % 1014,5 hPa 0,0 l/m 11,3 km/h (2 Bft) W-SW 238 0 min 0,000 mm 0,0 UV-I 42 W/m 3,4 C 0,5 C 22,5 km/h (4 Bft) 97,30 %
31.01.2016 14:15 4,4 C 94 % 1014,4 hPa 0,0 l/m 13,5 km/h (3 Bft) SW 227 0 min 0,000 mm 0,0 UV-I 45 W/m 3,5 C -0,8 C 22,5 km/h (4 Bft) 96,77 %
31.01.2016 14:20 4,4 C 94 % 1014,4 hPa 0,0 l/m 12,8 km/h (3 Bft) SW 232 0 min 0,000 mm 0,0 UV-I 42 W/m 3,5 C -0,4 C 20,9 km/h (4 Bft) 97,46 %
31.01.2016 14:25 4,4 C 94 % 1014,4 hPa 0,0 l/m 14,3 km/h (3 Bft) W-SW 246 0 min 0,000 mm 0,0 UV-I 40 W/m 3,5 C -1,3 C 22,5 km/h (4 Bft) 98,25 %
31.01.2016 14:30 4,4 C 94 % 1014,4 hPa 0,2 l/m 13,8 km/h (3 Bft) SW 225 0 min 0,000 mm 0,0 UV-I 36 W/m 3,5 C -1,0 C 25,7 km/h (4 Bft) 98,26 %
31.01.2016 14:35 4,4 C 93 % 1014,5 hPa 0,0 l/m 16,2 km/h (3 Bft) SW 223 0 min 0,000 mm 0,0 UV-I 32 W/m 3,4 C -2,3 C 27,4 km/h (4 Bft) 98,33 %
31.01.2016 14:40 4,5 C 92 % 1014,6 hPa 0,0 l/m 16,8 km/h (3 Bft) SW 215 0 min 0,000 mm 0,0 UV-I 31 W/m 3,3 C -2,4 C 24,1 km/h (4 Bft) 100,00 %
31.01.2016 14:45 4,5 C 92 % 1014,8 hPa 0,0 l/m 17,2 km/h (3 Bft) W-SW 237 0 min 0,000 mm 0,0 UV-I 26 W/m 3,3 C -2,6 C 24,1 km/h (4 Bft) 98,35 %
31.01.2016 14:50 4,4 C 92 % 1014,8 hPa 0,0 l/m 16,0 km/h (3 Bft) SW 232 0 min 0,000 mm 0,0 UV-I 22 W/m 3,2 C -2,2 C 24,1 km/h (4 Bft) 100,00 %
31.01.2016 14:55 4,4 C 93 % 1014,9 hPa 0,0 l/m 15,2 km/h (3 Bft) SW 222 0 min 0,000 mm 0,0 UV-I 20 W/m 3,4 C -1,8 C 25,7 km/h (4 Bft) 99,17 %
31.01.2016 15:00 4,3 C 92 % 1015,0 hPa 0,0 l/m 18,5 km/h (3 Bft) W-SW 240 0 min 0,025 mm 0,0 UV-I 18 W/m 3,1 C -3,4 C 32,2 km/h (5 Bft) 99,17 %
31.01.2016 15:05 4,2 C 92 % 1015,1 hPa 0,2 l/m 18,7 km/h (3 Bft) W 265 0 min 0,000 mm 0,0 UV-I 17 W/m 3,0 C -3,7 C 30,6 km/h (5 Bft) 98,06 %
31.01.2016 15:10 4,1 C 92 % 1015,0 hPa 0,0 l/m 16,5 km/h (3 Bft) W-SW 245 0 min 0,000 mm 0,0 UV-I 17 W/m 2,9 C -2,8 C 32,2 km/h (5 Bft) 99,22 %
31.01.2016 15:15 3,9 C 92 % 1014,9 hPa 0,2 l/m 18,0 km/h (3 Bft) W-SW 257 0 min 0,000 mm 0,0 UV-I 17 W/m 2,7 C -3,7 C 29,0 km/h (5 Bft) 100,00 %
31.01.2016 15:20 3,8 C 92 % 1014,9 hPa 0,2 l/m 16,4 km/h (3 Bft) W 259 0 min 0,000 mm 0,0 UV-I 16 W/m 2,6 C -3,1 C 29,0 km/h (5 Bft) 98,33 %
31.01.2016 15:25 3,7 C 92 % 1014,8 hPa 0,2 l/m 17,3 km/h (3 Bft) W-SW 244 0 min 0,000 mm 0,0 UV-I 13 W/m 2,5 C -3,7 C 25,7 km/h (4 Bft) 100,00 %
31.01.2016 15:30 3,6 C 93 % 1015,0 hPa 0,2 l/m 15,1 km/h (3 Bft) W-SW 253 0 min 0,000 mm 0,0 UV-I 17 W/m 2,6 C -2,7 C 25,7 km/h (4 Bft) 100,00 %
31.01.2016 15:35 3,5 C 93 % 1015,0 hPa 0,0 l/m 12,1 km/h (2 Bft) W-SW 246 0 min 0,000 mm 0,0 UV-I 17 W/m 2,5 C -1,0 C 25,7 km/h (4 Bft) 98,21 %
31.01.2016 15:40 3,5 C 94 % 1015,0 hPa 0,2 l/m 12,5 km/h (3 Bft) SW 215 0 min 0,000 mm 0,0 UV-I 14 W/m 2,6 C -1,3 C 24,1 km/h (4 Bft) 99,19 %
31.01.2016 15:45 3,5 C 94 % 1015,0 hPa 0,2 l/m 15,6 km/h (3 Bft) S-SW 201 0 min 0,000 mm 0,0 UV-I 13 W/m 2,6 C -3,1 C 27,4 km/h (4 Bft) 99,15 %
31.01.2016 15:50 3,4 C 93 % 1015,0 hPa 0,0 l/m 17,4 km/h (3 Bft) S-SW 206 0 min 0,000 mm 0,0 UV-I 12 W/m 2,4 C -4,1 C 30,6 km/h (5 Bft) 99,11 %
31.01.2016 15:55 3,3 C 93 % 1014,9 hPa 0,2 l/m 17,3 km/h (3 Bft) SW 221 0 min 0,000 mm 0,0 UV-I 11 W/m 2,3 C -4,2 C 27,4 km/h (4 Bft) 94,35 %
31.01.2016 16:00 3,2 C 93 % 1014,9 hPa 0,2 l/m 15,8 km/h (3 Bft) W-SW 247 0 min 0,025 mm 0,0 UV-I 13 W/m 2,2 C -3,5 C 27,4 km/h (4 Bft) 96,49 %
31.01.2016 16:05 3,1 C 94 % 1014,9 hPa 0,0 l/m 13,0 km/h (3 Bft) S-SW 213 0 min 0,000 mm 0,0 UV-I 10 W/m 2,2 C -2,1 C 22,5 km/h (4 Bft) 95,04 %
31.01.2016 16:10 3,1 C 94 % 1015,1 hPa 0,0 l/m 15,1 km/h (3 Bft) SW 228 0 min 0,000 mm 0,0 UV-I 11 W/m 2,2 C -3,3 C 24,1 km/h (4 Bft) 97,30 %
31.01.2016 16:15 2,9 C 94 % 1014,8 hPa 0,2 l/m 15,8 km/h (3 Bft) SW 229 0 min 0,000 mm 0,0 UV-I 10 W/m 2,0 C -3,9 C 29,0 km/h (5 Bft) 98,35 %
31.01.2016 16:20 2,8 C 94 % 1014,9 hPa 0,0 l/m 11,7 km/h (2 Bft) W-SW 243 0 min 0,000 mm 0,0 UV-I 9 W/m 1,9 C -1,6 C 22,5 km/h (4 Bft) 97,46 %
31.01.2016 16:25 2,8 C 94 % 1014,9 hPa 0,2 l/m 10,4 km/h (2 Bft) W-SW 242 0 min 0,000 mm 0,0 UV-I 9 W/m 1,9 C -0,7 C 17,7 km/h (3 Bft) 96,58 %
31.01.2016 16:30 2,8 C 95 % 1015,0 hPa 0,0 l/m 11,3 km/h (2 Bft) SW 218 0 min 0,000 mm 0,0 UV-I 9 W/m 2,1 C -1,3 C 20,9 km/h (4 Bft) 98,31 %
31.01.2016 16:35 2,8 C 95 % 1015,0 hPa 0,0 l/m 13,9 km/h (3 Bft) SW 228 0 min 0,000 mm 0,0 UV-I 7 W/m 2,1 C -3,0 C 20,9 km/h (4 Bft) 99,06 %
31.01.2016 16:40 2,8 C 95 % 1015,1 hPa 0,2 l/m 14,5 km/h (3 Bft) S-SW 208 0 min 0,000 mm 0,0 UV-I 5 W/m 2,1 C -3,3 C 22,5 km/h (4 Bft) 99,21 %
31.01.2016 16:45 2,8 C 95 % 1015,1 hPa 0,2 l/m 11,9 km/h (2 Bft) S-SW 207 0 min 0,000 mm 0,0 UV-I 3 W/m 2,1 C -1,7 C 22,5 km/h (4 Bft) 99,13 %
31.01.2016 16:50 2,7 C 95 % 1015,0 hPa 0,0 l/m 14,7 km/h (3 Bft) SW 231 0 min 0,000 mm 0,0 UV-I 0 W/m 2,0 C -3,5 C 25,7 km/h (4 Bft) 98,33 %
31.01.2016 16:55 2,7 C 95 % 1015,0 hPa 0,2 l/m 12,7 km/h (3 Bft) S-SW 212 0 min 0,000 mm 0,0 UV-I 0 W/m 2,0 C -2,3 C 22,5 km/h (4 Bft) 99,15 %
31.01.2016 17:00 2,6 C 95 % 1015,1 hPa 0,0 l/m 13,1 km/h (3 Bft) S-SW 196 0 min 0,000 mm 0,0 UV-I 0 W/m 1,9 C -2,7 C 20,9 km/h (4 Bft) 100,00 %
31.01.2016 17:05 2,6 C 95 % 1015,1 hPa 0,2 l/m 13,7 km/h (3 Bft) S 187 0 min 0,000 mm 0,0 UV-I 0 W/m 1,9 C -3,1 C 24,1 km/h (4 Bft) 98,10 %
31.01.2016 17:10 2,5 C 95 % 1015,3 hPa 0,0 l/m 12,3 km/h (3 Bft) SW 217 0 min 0,000 mm 0,0 UV-I 0 W/m 1,8 C -2,3 C 24,1 km/h (4 Bft) 100,00 %
31.01.2016 17:15 2,5 C 95 % 1015,3 hPa 0,2 l/m 12,3 km/h (3 Bft) S-SW 213 0 min 0,000 mm 0,0 UV-I 0 W/m 1,8 C -2,3 C 19,3 km/h (3 Bft) 99,17 %
31.01.2016 17:20 2,4 C 95 % 1015,3 hPa 0,0 l/m 11,4 km/h (2 Bft) S 181 0 min 0,000 mm 0,0 UV-I 0 W/m 1,7 C -1,8 C 20,9 km/h (4 Bft) 99,17 %
31.01.2016 17:25 2,5 C 95 % 1015,4 hPa 0,0 l/m 11,2 km/h (2 Bft) S 186 0 min 0,000 mm 0,0 UV-I 0 W/m 1,8 C -1,6 C 19,3 km/h (3 Bft) 98,31 %
31.01.2016 17:30 2,5 C 95 % 1015,4 hPa 0,2 l/m 11,2 km/h (2 Bft) S 191 0 min 0,000 mm 0,0 UV-I 0 W/m 1,8 C -1,6 C 22,5 km/h (4 Bft) 100,00 %
31.01.2016 17:35 2,6 C 95 % 1015,5 hPa 0,0 l/m 9,5 km/h (2 Bft) S 182 0 min 0,000 mm 0,0 UV-I 0 W/m 1,9 C -0,2 C 16,1 km/h (3 Bft) 99,10 %
31.01.2016 17:40 2,6 C 95 % 1015,6 hPa 0,0 l/m 12,5 km/h (3 Bft) W-SW 242 0 min 0,000 mm 0,0 UV-I 0 W/m 1,9 C -2,3 C 20,9 km/h (4 Bft) 99,22 %
31.01.2016 17:45 2,6 C 95 % 1015,6 hPa 0,2 l/m 11,3 km/h (2 Bft) S-SW 207 0 min 0,000 mm 0,0 UV-I 0 W/m 1,9 C -1,5 C 19,3 km/h (3 Bft) 100,00 %
31.01.2016 17:50 2,6 C 95 % 1015,6 hPa 0,0 l/m 10,6 km/h (2 Bft) SW 234 0 min 0,000 mm 0,0 UV-I 0 W/m 1,9 C -1,0 C 20,9 km/h (4 Bft) 100,00 %
31.01.2016 17:55 2,5 C 95 % 1015,5 hPa 0,2 l/m 11,1 km/h (2 Bft) W 260 0 min 0,000 mm 0,0 UV-I 0 W/m 1,8 C -1,5 C 17,7 km/h (3 Bft) 100,00 %
31.01.2016 18:00 2,5 C 95 % 1015,5 hPa 0,0 l/m 10,3 km/h (2 Bft) SW 225 0 min 0,000 mm 0,0 UV-I 0 W/m 1,8 C -0,9 C 20,9 km/h (4 Bft) 96,58 %
31.01.2016 18:05 2,4 C 95 % 1015,5 hPa 0,0 l/m 11,9 km/h (2 Bft) SW 219 0 min 0,000 mm 0,0 UV-I 0 W/m 1,7 C -2,2 C 17,7 km/h (3 Bft) 96,43 %
31.01.2016 18:10 2,5 C 95 % 1015,6 hPa 0,0 l/m 11,4 km/h (2 Bft) S-SW 210 0 min 0,000 mm 0,0 UV-I 0 W/m 1,8 C -1,7 C 20,9 km/h (4 Bft) 98,31 %
31.01.2016 18:15 2,4 C 95 % 1015,5 hPa 0,2 l/m 12,1 km/h (2 Bft) S-SW 210 0 min 0,000 mm 0,0 UV-I 0 W/m 1,7 C -2,3 C 20,9 km/h (4 Bft) 95,73 %
31.01.2016 18:20 2,4 C 95 % 1015,4 hPa 0,0 l/m 13,0 km/h (3 Bft) S-SW 211 0 min 0,000 mm 0,0 UV-I 0 W/m 1,7 C -2,9 C 17,7 km/h (3 Bft) 96,06 %
31.01.2016 18:25 2,4 C 95 % 1015,5 hPa 0,0 l/m 11,0 km/h (2 Bft) S-SW 208 0 min 0,000 mm 0,0 UV-I 0 W/m 1,7 C -1,5 C 19,3 km/h (3 Bft) 95,28 %
31.01.2016 18:30 2,4 C 95 % 1015,4 hPa 0,0 l/m 8,8 km/h (2 Bft) S 171 0 min 0,000 mm 0,0 UV-I 0 W/m 1,7 C 0,2 C 16,1 km/h (3 Bft) 96,03 %
31.01.2016 18:35 2,4 C 95 % 1015,3 hPa 0,2 l/m 12,1 km/h (2 Bft) S-SW 201 0 min 0,000 mm 0,0 UV-I 0 W/m 1,7 C -2,3 C 19,3 km/h (3 Bft) 99,13 %
31.01.2016 18:40 2,4 C 95 % 1015,4 hPa 0,0 l/m 10,1 km/h (2 Bft) S-SW 211 0 min 0,000 mm 0,0 UV-I 0 W/m 1,7 C -0,9 C 16,1 km/h (3 Bft) 100,00 %
31.01.2016 18:45 2,4 C 95 % 1015,5 hPa 0,0 l/m 9,6 km/h (2 Bft) S-SW 211 0 min 0,000 mm 0,0 UV-I 0 W/m 1,7 C -0,5 C 16,1 km/h (3 Bft) 98,35 %
31.01.2016 18:50 2,4 C 95 % 1015,4 hPa 0,0 l/m 9,7 km/h (2 Bft) S 188 0 min 0,000 mm 0,0 UV-I 0 W/m 1,7 C -0,6 C 16,1 km/h (3 Bft) 99,17 %
31.01.2016 18:55 2,4 C 95 % 1015,5 hPa 0,0 l/m 7,9 km/h (2 Bft) S-SW 205 0 min 0,000 mm 0,0 UV-I 0 W/m 1,7 C 1,0 C 12,9 km/h (3 Bft) 98,25 %
31.01.2016 19:00 2,4 C 95 % 1015,4 hPa 0,0 l/m 7,1 km/h (2 Bft) S 178 0 min 0,000 mm 0,0 UV-I 0 W/m 1,7 C 1,7 C 11,3 km/h (2 Bft) 100,00 %
31.01.2016 19:05 2,4 C 96 % 1015,3 hPa 0,2 l/m 6,2 km/h (2 Bft) S-SW 192 0 min 0,000 mm 0,0 UV-I 0 W/m 1,8 C 2,4 C 11,3 km/h (2 Bft) 99,15 %
31.01.2016 19:10 2,4 C 96 % 1015,3 hPa 0,0 l/m 6,1 km/h (2 Bft) SW 221 0 min 0,000 mm 0,0 UV-I 0 W/m 1,8 C 2,4 C 11,3 km/h (2 Bft) 100,00 %
31.01.2016 19:15 2,4 C 96 % 1015,3 hPa 0,0 l/m 6,6 km/h (2 Bft) S-SW 205 0 min 0,000 mm 0,0 UV-I 0 W/m 1,8 C 2,2 C 14,5 km/h (3 Bft) 99,11 %
31.01.2016 19:20 2,4 C 96 % 1015,4 hPa 0,2 l/m 7,0 km/h (2 Bft) S-SW 207 0 min 0,000 mm 0,0 UV-I 0 W/m 1,8 C 1,8 C 11,3 km/h (2 Bft) 100,00 %
31.01.2016 19:25 2,4 C 96 % 1015,4 hPa 0,0 l/m 6,3 km/h (2 Bft) S-SW 197 0 min 0,000 mm 0,0 UV-I 0 W/m 1,8 C 2,4 C 11,3 km/h (2 Bft) 99,19 %
31.01.2016 19:30 2,4 C 96 % 1015,3 hPa 0,0 l/m 5,5 km/h (1 Bft) SW 218 0 min 0,000 mm 0,0 UV-I 0 W/m 1,8 C 2,4 C 9,7 km/h (2 Bft) 99,15 %
31.01.2016 19:35 2,4 C 96 % 1015,3 hPa 0,2 l/m 5,8 km/h (2 Bft) SW 231 0 min 0,000 mm 0,0 UV-I 0 W/m 1,8 C 2,4 C 9,7 km/h (2 Bft) 100,00 %
31.01.2016 19:40 2,4 C 96 % 1015,1 hPa 0,0 l/m 5,0 km/h (1 Bft) S 181 0 min 0,000 mm 0,0 UV-I 0 W/m 1,8 C 2,4 C 8,0 km/h (2 Bft) 100,00 %
31.01.2016 19:45 2,4 C 96 % 1015,2 hPa 0,2 l/m 3,6 km/h (1 Bft) S-SW 197 0 min 0,000 mm 0,0 UV-I 0 W/m 1,8 C 2,4 C 6,4 km/h (2 Bft) 100,00 %
31.01.2016 19:50 2,4 C 96 % 1015,1 hPa 0,0 l/m 4,1 km/h (1 Bft) S 189 0 min 0,000 mm 0,0 UV-I 0 W/m 1,8 C 2,4 C 6,4 km/h (2 Bft) 100,00 %
31.01.2016 19:55 2,4 C 96 % 1015,0 hPa 0,0 l/m 3,2 km/h (1 Bft) S 183 0 min 0,000 mm 0,0 UV-I 0 W/m 1,8 C 2,4 C 6,4 km/h (2 Bft) 99,20 %
31.01.2016 20:00 2,4 C 97 % 1015,0 hPa 0,2 l/m 3,5 km/h (1 Bft) S 173 0 min 0,000 mm 0,0 UV-I 0 W/m 2,0 C 2,4 C 9,7 km/h (2 Bft) 98,25 %
31.01.2016 20:05 2,4 C 97 % 1014,9 hPa 0,0 l/m 4,1 km/h (1 Bft) S 180 0 min 0,000 mm 0,0 UV-I 0 W/m 2,0 C 2,4 C 8,0 km/h (2 Bft) 96,52 %
31.01.2016 20:10 2,4 C 96 % 1014,9 hPa 0,0 l/m 3,1 km/h (1 Bft) S-SW 194 0 min 0,000 mm 0,0 UV-I 0 W/m 1,8 C 2,4 C 6,4 km/h (2 Bft) 97,39 %
31.01.2016 20:15 2,4 C 97 % 1014,9 hPa 0,0 l/m 1,8 km/h (1 Bft) S-SW 194 0 min 0,000 mm 0,0 UV-I 0 W/m 2,0 C 2,4 C 3,2 km/h (1 Bft) 96,67 %
31.01.2016 20:20 2,4 C 97 % 1014,9 hPa 0,2 l/m 0,5 km/h (0 Bft) S-SW 194 0 min 0,000 mm 0,0 UV-I 0 W/m 2,0 C 2,4 C 3,2 km/h (1 Bft) 97,94 %
31.01.2016 20:25 2,4 C 97 % 1014,7 hPa 0,0 l/m 0,7 km/h (0 Bft) S-SW 194 0 min 0,000 mm 0,0 UV-I 0 W/m 2,0 C 2,4 C 3,2 km/h (1 Bft) 94,20 %
31.01.2016 20:30 2,4 C 97 % 1014,6 hPa 0,0 l/m 1,1 km/h (1 Bft) S-SW 194 0 min 0,000 mm 0,0 UV-I 0 W/m 2,0 C 2,4 C 3,2 km/h (1 Bft) 95,76 %
31.01.2016 20:35 2,3 C 97 % 1014,6 hPa 0,0 l/m 0,0 km/h (0 Bft) S-SW 194 0 min 0,000 mm 0,0 UV-I 0 W/m 1,9 C 2,3 C 1,6 km/h (1 Bft) 97,25 %
31.01.2016 20:40 2,3 C 97 % 1014,6 hPa 0,0 l/m 0,1 km/h (0 Bft) S-SW 194 0 min 0,000 mm 0,0 UV-I 0 W/m 1,9 C 2,3 C 1,6 km/h (1 Bft) 98,37 %
31.01.2016 20:45 2,3 C 97 % 1014,5 hPa 0,2 l/m 0,3 km/h (0 Bft) S-SW 194 0 min 0,000 mm 0,0 UV-I 0 W/m 1,9 C 2,3 C 1,6 km/h (1 Bft) 98,31 %
31.01.2016 20:50 2,3 C 97 % 1014,5 hPa 0,2 l/m 0,6 km/h (0 Bft) S-SW 194 0 min 0,000 mm 0,0 UV-I 0 W/m 1,9 C 2,3 C 1,6 km/h (1 Bft) 99,15 %
31.01.2016 20:55 2,3 C 97 % 1014,5 hPa 0,0 l/m 1,5 km/h (1 Bft) S-SW 194 0 min 0,000 mm 0,0 UV-I 0 W/m 1,9 C 2,3 C 4,8 km/h (1 Bft) 100,00 %
31.01.2016 21:00 2,4 C 97 % 1014,4 hPa 0,0 l/m 1,9 km/h (1 Bft) S-SW 194 0 min 0,000 mm 0,0 UV-I 0 W/m 2,0 C 2,4 C 4,8 km/h (1 Bft) 99,08 %
31.01.2016 21:05 2,4 C 97 % 1014,4 hPa 0,2 l/m 2,2 km/h (1 Bft) S 189 0 min 0,000 mm 0,0 UV-I 0 W/m 2,0 C 2,4 C 4,8 km/h (1 Bft) 100,00 %
31.01.2016 21:10 2,4 C 97 % 1014,6 hPa 0,2 l/m 1,3 km/h (1 Bft) S 189 0 min 0,000 mm 0,0 UV-I 0 W/m 2,0 C 2,4 C 3,2 km/h (1 Bft) 98,33 %
31.01.2016 21:15 2,4 C 98 % 1014,6 hPa 0,0 l/m 0,3 km/h (0 Bft) S 189 0 min 0,000 mm 0,0 UV-I 0 W/m 2,1 C 2,4 C 3,2 km/h (1 Bft) 100,00 %
31.01.2016 21:20 2,5 C 98 % 1014,5 hPa 0,2 l/m 0,5 km/h (0 Bft) S 189 0 min 0,000 mm 0,0 UV-I 0 W/m 2,2 C 2,5 C 3,2 km/h (1 Bft) 100,00 %
31.01.2016 21:25 2,5 C 98 % 1014,4 hPa 0,2 l/m 0,4 km/h (0 Bft) S 189 0 min 0,000 mm 0,0 UV-I 0 W/m 2,2 C 2,5 C 1,6 km/h (1 Bft) 100,00 %
31.01.2016 21:30 2,6 C 98 % 1014,3 hPa 0,0 l/m 2,3 km/h (1 Bft) S 188 0 min 0,000 mm 0,0 UV-I 0 W/m 2,3 C 2,6 C 4,8 km/h (1 Bft) 100,00 %
31.01.2016 21:35 2,6 C 98 % 1014,4 hPa 0,2 l/m 3,3 km/h (1 Bft) S 180 0 min 0,000 mm 0,0 UV-I 0 W/m 2,3 C 2,6 C 6,4 km/h (2 Bft) 100,00 %
31.01.2016 21:40 2,6 C 98 % 1014,4 hPa 0,2 l/m 3,4 km/h (1 Bft) S 188 0 min 0,000 mm 0,0 UV-I 0 W/m 2,3 C 2,6 C 6,4 km/h (2 Bft) 99,17 %
31.01.2016 21:45 2,6 C 98 % 1014,3 hPa 0,2 l/m 3,7 km/h (1 Bft) S-SW 192 0 min 0,000 mm 0,0 UV-I 0 W/m 2,3 C 2,6 C 6,4 km/h (2 Bft) 100,00 %
31.01.2016 21:50 2,6 C 98 % 1014,3 hPa 0,2 l/m 2,7 km/h (1 Bft) SW 231 0 min 0,000 mm 0,0 UV-I 0 W/m 2,3 C 2,6 C 6,4 km/h (2 Bft) 100,00 %
31.01.2016 21:55 2,7 C 98 % 1014,2 hPa 0,0 l/m 3,0 km/h (1 Bft) SW 233 0 min 0,000 mm 0,0 UV-I 0 W/m 2,4 C 2,7 C 6,4 km/h (2 Bft) 99,17 %
31.01.2016 22:00 2,7 C 98 % 1014,2 hPa 0,2 l/m 1,7 km/h (1 Bft) SW 234 0 min 0,000 mm 0,0 UV-I 0 W/m 2,4 C 2,7 C 4,8 km/h (1 Bft) 98,25 %
31.01.2016 22:05 2,7 C 98 % 1014,2 hPa 0,0 l/m 0,0 km/h (0 Bft) SW 234 0 min 0,000 mm 0,0 UV-I 0 W/m 2,4 C 2,7 C 0,0 km/h (0 Bft) 100,00 %
31.01.2016 22:10 2,7 C 98 % 1014,1 hPa 0,2 l/m 0,0 km/h (0 Bft) SW 234 0 min 0,000 mm 0,0 UV-I 0 W/m 2,4 C 2,7 C 1,6 km/h (1 Bft) 97,52 %
31.01.2016 22:15 2,7 C 98 % 1014,0 hPa 0,0 l/m 0,1 km/h (0 Bft) SW 234 0 min 0,000 mm 0,0 UV-I 0 W/m 2,4 C 2,7 C 1,6 km/h (1 Bft) 96,67 %
31.01.2016 22:20 2,7 C 98 % 1013,8 hPa 0,0 l/m 0,1 km/h (0 Bft) SW 234 0 min 0,000 mm 0,0 UV-I 0 W/m 2,4 C 2,7 C 1,6 km/h (1 Bft) 97,39 %
31.01.2016 22:25 2,7 C 98 % 1013,6 hPa 0,2 l/m 0,6 km/h (0 Bft) N-NW 339 0 min 0,000 mm 0,0 UV-I 0 W/m 2,4 C 2,7 C 3,2 km/h (1 Bft) 97,50 %
31.01.2016 22:30 2,7 C 98 % 1013,6 hPa 0,0 l/m 3,0 km/h (1 Bft) N-NO 20 0 min 0,000 mm 0,0 UV-I 0 W/m 2,4 C 2,7 C 6,4 km/h (2 Bft) 96,61 %
31.01.2016 22:35 2,6 C 98 % 1013,5 hPa 0,2 l/m 5,0 km/h (1 Bft) NO 53 0 min 0,000 mm 0,0 UV-I 0 W/m 2,3 C 2,6 C 6,4 km/h (2 Bft) 97,39 %
31.01.2016 22:40 2,6 C 98 % 1013,5 hPa 0,0 l/m 3,2 km/h (1 Bft) NO 53 0 min 0,000 mm 0,0 UV-I 0 W/m 2,3 C 2,6 C 6,4 km/h (2 Bft) 94,17 %
31.01.2016 22:45 2,6 C 98 % 1013,5 hPa 0,0 l/m 5,8 km/h (2 Bft) NO 44 0 min 0,000 mm 0,0 UV-I 0 W/m 2,3 C 2,6 C 8,0 km/h (2 Bft) 99,13 %
31.01.2016 22:50 2,5 C 98 % 1013,4 hPa 0,4 l/m 4,0 km/h (1 Bft) NO 49 0 min 0,000 mm 0,0 UV-I 0 W/m 2,2 C 2,5 C 6,4 km/h (2 Bft) 99,10 %
31.01.2016 22:55 2,4 C 98 % 1013,3 hPa 0,0 l/m 3,4 km/h (1 Bft) NO 49 0 min 0,000 mm 0,0 UV-I 0 W/m 2,1 C 2,4 C 4,8 km/h (1 Bft) 99,19 %
31.01.2016 23:00 2,4 C 98 % 1013,1 hPa 0,0 l/m 4,9 km/h (1 Bft) NO 47 0 min 0,000 mm 0,0 UV-I 0 W/m 2,1 C 2,4 C 8,0 km/h (2 Bft) 100,00 %
31.01.2016 23:05 2,4 C 98 % 1013,1 hPa 0,2 l/m 5,4 km/h (1 Bft) N-NO 26 0 min 0,000 mm 0,0 UV-I 0 W/m 2,1 C 2,4 C 6,4 km/h (2 Bft) 96,85 %
31.01.2016 23:10 2,4 C 98 % 1013,0 hPa 0,2 l/m 5,7 km/h (1 Bft) NO 47 0 min 0,000 mm 0,0 UV-I 0 W/m 2,1 C 2,4 C 6,4 km/h (2 Bft) 100,00 %
31.01.2016 23:15 2,5 C 98 % 1012,9 hPa 0,0 l/m 3,4 km/h (1 Bft) NO 47 0 min 0,000 mm 0,0 UV-I 0 W/m 2,2 C 2,5 C 4,8 km/h (1 Bft) 100,00 %
31.01.2016 23:20 2,5 C 98 % 1012,7 hPa 0,2 l/m 5,3 km/h (1 Bft) NO 53 0 min 0,000 mm 0,0 UV-I 0 W/m 2,2 C 2,5 C 8,0 km/h (2 Bft) 100,00 %
31.01.2016 23:25 2,5 C 98 % 1012,7 hPa 0,2 l/m 5,1 km/h (1 Bft) NO 51 0 min 0,000 mm 0,0 UV-I 0 W/m 2,2 C 2,5 C 6,4 km/h (2 Bft) 99,08 %
31.01.2016 23:30 2,4 C 98 % 1012,6 hPa 0,4 l/m 4,9 km/h (1 Bft) O-NO 66 0 min 0,000 mm 0,0 UV-I 0 W/m 2,1 C 2,4 C 6,4 km/h (2 Bft) 100,00 %
31.01.2016 23:35 2,5 C 98 % 1012,6 hPa 0,4 l/m 5,8 km/h (2 Bft) O-NO 71 0 min 0,000 mm 0,0 UV-I 0 W/m 2,2 C 2,5 C 8,0 km/h (2 Bft) 99,12 %
31.01.2016 23:40 2,6 C 98 % 1012,7 hPa 0,4 l/m 3,2 km/h (1 Bft) NO 49 0 min 0,000 mm 0,0 UV-I 0 W/m 2,3 C 2,6 C 6,4 km/h (2 Bft) 99,11 %
31.01.2016 23:45 2,6 C 98 % 1012,7 hPa 0,4 l/m 2,1 km/h (1 Bft) O-NO 58 0 min 0,000 mm 0,0 UV-I 0 W/m 2,3 C 2,6 C 4,8 km/h (1 Bft) 99,15 %
31.01.2016 23:50 2,7 C 98 % 1012,7 hPa 0,2 l/m 2,8 km/h (1 Bft) O-NO 58 0 min 0,000 mm 0,0 UV-I 0 W/m 2,4 C 2,7 C 4,8 km/h (1 Bft) 98,33 %
31.01.2016 23:55 2,7 C 98 % 1012,7 hPa 0,2 l/m 2,1 km/h (1 Bft) O-NO 58 0 min 0,000 mm 0,0 UV-I 0 W/m 2,4 C 2,7 C 4,8 km/h (1 Bft) 100,00 %
_ Min-Zeit 09:15 03:15 00:40 - 20:35 - - - - - - 09:15 06:15 22:05 22:40
Minimum _ 1,5 C 83 % 1012,0 hPa - 0,0 km/h (0 Bft) - - - - - - 0,9 C -8,0 C 0,0 km/h (0 Bft) 94,17 %
_ Max-Zeit 02:25 00:00 08:15 02:35 03:15 - - 11:50 12:00 11:50 11:50 01:20 00:30 03:10 00:10
Maximum _ 6,7 C 98 % 1016,9 hPa 1,0 l/m 27,1 km/h
W-SW (4 Bft)
- - 5 min 0,077 mm 0,7 UV-I 243 W/m 5,9 C 5,7 C 54,7 km/h
W-SW (7 Bft)
100,00 %
Durchschnitt _ 3,5 C 94 % 1014,8 hPa #18,0 l/m 13,0 km/h (3 Bft) SW - #5 min. #0,406 mm 0,5 UV-I 65 W/m 2,7 C -1,4 C 22,2 km/h (4 Bft) 98,48 %